Regional Weather Roundup
Issued by NWS

Home | Current Version | Previous Version | Text Only | Print | Product List | Glossary On
Versions: 1 2 3 4 5 6 7 8 9 10 11 12 13 14 15 16 17 18 19 20 21 22 23 24 25 26 27 28 29 30 31 32 33 34 35 36 37 38 39 40 41 42 43 44 45 46 47 48 49 50
000
ASUS43 KBIS 281502
RWRND

NORTH DAKOTA REGIONAL WEATHER ROUNDUP
NATIONAL WEATHER SERVICE BISMARCK ND
1000 AM CDT TUE JUL 28 2015

NOTE: "FAIR" INDICATES FEW OR NO CLOUDS BELOW 12,000 FEET WITH NO
SIGNIFICANT WEATHER AND/OR OBSTRUCTIONS TO VISIBILITY.


NDZ001>003-009>011-017-281600-
NORTHWEST NORTH DAKOTA

CITY           SKY/WX    TMP DP  RH WIND       PRES   REMARKS
WILLISTON      CLOUDY    57  55  93 SW16G29   29.53F
MINOT          PTSUNNY   67  52  58 SW18G32   29.56F
MINOT AFB      PTSUNNY   66  55  67 SW20G35   29.54F
$$

NDZ018>021-031>035-040>046-281600-
SOUTHWEST NORTH DAKOTA

CITY           SKY/WX    TMP DP  RH WIND       PRES   REMARKS
BISMARCK       MOSUNNY   67  50  54 W29G35    29.74S
DICKINSON      CLOUDY    60  47  61 W30G47    29.71F
GARRISON         N/A     64  51  62 W20G39    29.63S
HETTINGER ARPT MOSUNNY   62  44  51 W35G49    29.82S
$$

NDZ004>008-012>016-024-026-027-054-281600-
NORTHEAST NORTH DAKOTA

CITY           SKY/WX    TMP DP  RH WIND       PRES   REMARKS
GRAND FORKS    PTSUNNY   77  67  71 S21G32    29.59R
DEVILS LAKE    CLOUDY    70  55  60 SW22      29.60S
$$

NDZ022-023-025-028>030-036>039-047>053-281600-
SOUTHEAST NORTH DAKOTA

CITY           SKY/WX    TMP DP  RH WIND       PRES   REMARKS
FARGO          MOSUNNY   76  67  73 SW25G35   29.67R
JAMESTOWN      MOSUNNY   68  56  65 W21G28    29.71R
$$




USA.gov is the U.S. government's official web portal to all federal, state and local government web resources and services.